• In Belgien
  • Länderverzeichnis
  • Für 7 Tage
  • Wassertemperatur
  • Satellitenkarten
  • Wetterkarte
  • Widgets
  • user-avatar
    Anmelden

    Stündliche Wetter Canberra

    Heute, 15 November, Donnerstag

    Zeit Temperatur Niederschläge Wind Luftdruck Luftfeuchtigkeit
    00:00 +14°C° 0 mm 1 m/S 709 mmHg 96%
    01:00 +14°C° 0 mm 1 m/S 709 mmHg 96%
    02:00 +14°C° 0 mm 1 m/S 709 mmHg 96%
    03:00 +13°C° 0 mm 1 m/S 709 mmHg 96%
    04:00 +12°C° 0 mm 0 m/S 709 mmHg 95%
    05:00 +14°C° 0 mm 0 m/S 709 mmHg 91%
    06:00 +15°C° 0 mm 0 m/S 710 mmHg 87%
    07:00 +17°C° 0 mm 0 m/S 711 mmHg 82%
    08:00 +20°C° 0.2 mm 1 m/S 711 mmHg 74%
    09:00 +21°C° 0.2 mm 2 m/S 711 mmHg 66%
    10:00 +23°C° 0 mm 2 m/S 712 mmHg 57%
    11:00 +22°C° 0.3 mm 3 m/S 712 mmHg 57%
    12:00 +22°C° 0.3 mm 3 m/S 712 mmHg 56%
    13:00 +22°C° 0.3 mm 4 m/S 712 mmHg 56%
    14:00 +21°C° 0.1 mm 4 m/S 711 mmHg 62%
    15:00 +19°C° 0.1 mm 4 m/S 711 mmHg 67%
    16:00 +17°C° 0 mm 4 m/S 711 mmHg 71%
    17:00 +16°C° 0.1 mm 3 m/S 712 mmHg 76%
    18:00 +13°C° 0.1 mm 3 m/S 712 mmHg 82%
    19:00 +12°C° 0.1 mm 3 m/S 712 mmHg 87%
    20:00 +11°C° 0 mm 3 m/S 712 mmHg 87%
    21:00 +11°C° 0 mm 3 m/S 713 mmHg 87%
    22:00 +11°C° 0 mm 1 m/S 713 mmHg 88%
    23:00 +10°C° 0 mm 2 m/S 713 mmHg 86%

    Morgen, 16 November, Freitag

    Zeit Temperatur Niederschläge Wind Luftdruck Luftfeuchtigkeit
    00:00 +10°C° 0 mm 2 m/S 713 mmHg 85%
    01:00 +9°C° 0 mm 2 m/S 713 mmHg 84%
    02:00 +9°C° 0 mm 2 m/S 713 mmHg 87%
    03:00 +8°C° 0 mm 2 m/S 712 mmHg 89%
    04:00 +7°C° 0 mm 2 m/S 712 mmHg 92%
    05:00 +8°C° 0 mm 2 m/S 712 mmHg 88%
    06:00 +10°C° 0 mm 2 m/S 712 mmHg 85%
    07:00 +12°C° 0 mm 2 m/S 712 mmHg 81%
    08:00 +14°C° 0 mm 2 m/S 712 mmHg 76%
    09:00 +15°C° 0 mm 2 m/S 712 mmHg 72%
    10:00 +16°C° 0 mm 2 m/S 712 mmHg 67%
    11:00 +17°C° 0 mm 2 m/S 712 mmHg 62%
    12:00 +19°C° 0 mm 2 m/S 712 mmHg 57%
    13:00 +20°C° 0 mm 2 m/S 711 mmHg 52%
    14:00 +20°C° 0 mm 2 m/S 711 mmHg 52%
    15:00 +21°C° 0 mm 2 m/S 710 mmHg 52%
    16:00 +21°C° 0 mm 2 m/S 710 mmHg 52%
    17:00 +19°C° 0 mm 2 m/S 710 mmHg 62%
    18:00 +17°C° 0 mm 2 m/S 709 mmHg 72%
    19:00 +15°C° 0 mm 2 m/S 709 mmHg 81%
    20:00 +14°C° 0 mm 2 m/S 710 mmHg 86%
    21:00 +13°C° 0 mm 2 m/S 710 mmHg 91%
    22:00 +12°C° 0 mm 2 m/S 710 mmHg 96%
    23:00 +12°C° 0 mm 1 m/S 710 mmHg 96%

    übermorgen, 17 November, Samstag

    Zeit Temperatur Niederschläge Wind Luftdruck Luftfeuchtigkeit
    00:00 +12°C° 0 mm 1 m/S 710 mmHg 96%
    01:00 +12°C° 0 mm 1 m/S 710 mmHg 96%
    02:00 +11°C° 0 mm 1 m/S 710 mmHg 97%
    03:00 +11°C° 0 mm 1 m/S 710 mmHg 97%
    04:00 +11°C° 0 mm 1 m/S 710 mmHg 97%
    05:00 +12°C° 0 mm 1 m/S 710 mmHg 92%
    06:00 +13°C° 0 mm 2 m/S 711 mmHg 87%
    07:00 +14°C° 0 mm 2 m/S 711 mmHg 82%
    08:00 +16°C° 0.2 mm 2 m/S 712 mmHg 75%
    09:00 +17°C° 0.2 mm 3 m/S 712 mmHg 68%
    10:00 +18°C° 0.2 mm 3 m/S 712 mmHg 61%
    11:00 +19°C° 0.1 mm 4 m/S 712 mmHg 60%
    12:00 +19°C° 0.1 mm 4 m/S 712 mmHg 58%
    13:00 +19°C° 0.1 mm 4 m/S 712 mmHg 56%
    14:00 +18°C° 0.1 mm 4 m/S 712 mmHg 60%
    15:00 +17°C° 0.1 mm 4 m/S 712 mmHg 64%
    16:00 +17°C° 0.1 mm 4 m/S 712 mmHg 68%
    17:00 +14°C° 0 mm 4 m/S 712 mmHg 74%
    18:00 +13°C° 0 mm 4 m/S 712 mmHg 80%
    19:00 +11°C° 0 mm 3 m/S 713 mmHg 86%
    20:00 +11°C° 0 mm 3 m/S 713 mmHg 87%
    21:00 +11°C° 0 mm 3 m/S 714 mmHg 87%
    22:00 +10°C° 0 mm 3 m/S 714 mmHg 88%
    23:00 +10°C° 0 mm 3 m/S 714 mmHg 90%

    18 November, Sonntag

    Zeit Temperatur Niederschläge Wind Luftdruck Luftfeuchtigkeit
    00:00 +9°C° 0 mm 2 m/S 714 mmHg 92%
    01:00 +9°C° 0 mm 2 m/S 714 mmHg 94%
    02:00 +8°C° 0 mm 2 m/S 714 mmHg 93%
    03:00 +8°C° 0 mm 2 m/S 714 mmHg 93%
    04:00 +8°C° 0 mm 2 m/S 714 mmHg 93%
    05:00 +9°C° 0 mm 2 m/S 714 mmHg 87%
    06:00 +10°C° 0 mm 2 m/S 714 mmHg 81%
    07:00 +11°C° 0 mm 3 m/S 714 mmHg 75%
    08:00 +13°C° 0 mm 3 m/S 714 mmHg 66%
    09:00 +16°C° 0 mm 3 m/S 715 mmHg 57%
    10:00 +18°C° 0 mm 4 m/S 715 mmHg 48%
    11:00 +19°C° 0 mm 4 m/S 715 mmHg 46%
    12:00 +20°C° 0 mm 4 m/S 714 mmHg 44%
    13:00 +21°C° 0 mm 4 m/S 714 mmHg 42%
    14:00 +21°C° 0 mm 4 m/S 714 mmHg 44%
    15:00 +20°C° 0 mm 4 m/S 713 mmHg 46%
    16:00 +20°C° 0 mm 4 m/S 713 mmHg 48%
    17:00 +18°C° 0 mm 4 m/S 713 mmHg 55%
    18:00 +16°C° 0 mm 3 m/S 713 mmHg 63%
    19:00 +13°C° 0 mm 3 m/S 714 mmHg 71%
    20:00 +11°C° 0 mm 3 m/S 714 mmHg 78%
    21:00 +10°C° 0 mm 2 m/S 714 mmHg 85%
    22:00 +8°C° 0 mm 2 m/S 714 mmHg 92%
    23:00 +8°C° 0 mm 2 m/S 714 mmHg 94%

    19 November, Montag

    Zeit Temperatur Niederschläge Wind Luftdruck Luftfeuchtigkeit
    00:00 +7°C° 0 mm 2 m/S 713 mmHg 95%
    01:00 +8°C° 0 mm 1 m/S 713 mmHg 96%
    02:00 +8°C° 0 mm 1 m/S 713 mmHg 96%
    03:00 +7°C° 0 mm 1 m/S 713 mmHg 96%
    04:00 +7°C° 0 mm 1 m/S 712 mmHg 97%
    05:00 +9°C° 0 mm 1 m/S 713 mmHg 89%
    06:00 +11°C° 0 mm 1 m/S 713 mmHg 81%
    07:00 +13°C° 0 mm 2 m/S 713 mmHg 73%
    08:00 +16°C° 0 mm 2 m/S 713 mmHg 61%
    09:00 +18°C° 0 mm 2 m/S 713 mmHg 49%
    10:00 +21°C° 0 mm 2 m/S 713 mmHg 38%
    11:00 +24°C° 0 mm 2 m/S 713 mmHg 35%
    12:00 +25°C° 0 mm 2 m/S 712 mmHg 31%
    13:00 +26°C° 0 mm 2 m/S 712 mmHg 28%
    14:00 +26°C° 0 mm 2 m/S 711 mmHg 29%
    15:00 +26°C° 0 mm 2 m/S 711 mmHg 30%
    16:00 +25°C° 0 mm 2 m/S 710 mmHg 31%
    17:00 +23°C° 0 mm 2 m/S 710 mmHg 41%
    18:00 +19°C° 0 mm 2 m/S 710 mmHg 50%
    19:00 +17°C° 0 mm 2 m/S 710 mmHg 60%
    20:00 +15°C° 0 mm 2 m/S 710 mmHg 70%
    21:00 +14°C° 0 mm 2 m/S 710 mmHg 81%
    22:00 +12°C° 0 mm 1 m/S 710 mmHg 92%
    23:00 +11°C° 0 mm 1 m/S 709 mmHg 93%

    20 November, Dienstag

    Zeit Temperatur Niederschläge Wind Luftdruck Luftfeuchtigkeit
    00:00 +11°C° 0 mm 1 m/S 709 mmHg 94%
    01:00 +10°C° 0 mm 1 m/S 708 mmHg 95%
    02:00 +10°C° 0 mm 1 m/S 708 mmHg 95%
    03:00 +10°C° 0 mm 1 m/S 707 mmHg 94%
    04:00 +10°C° 0 mm 1 m/S 707 mmHg 94%
    05:00 +12°C° 0 mm 1 m/S 707 mmHg 83%
    06:00 +15°C° 0 mm 1 m/S 708 mmHg 73%
    07:00 +18°C° 0 mm 1 m/S 708 mmHg 63%
    08:00 +20°C° 0 mm 2 m/S 708 mmHg 54%
    09:00 +24°C° 0 mm 2 m/S 708 mmHg 45%
    10:00 +27°C° 0 mm 3 m/S 708 mmHg 36%
    11:00 +28°C° 0 mm 3 m/S 707 mmHg 33%
    12:00 +29°C° 0 mm 3 m/S 706 mmHg 31%
    13:00 +30°C° 0 mm 3 m/S 706 mmHg 29%
    14:00 +30°C° 0 mm 3 m/S 705 mmHg 29%
    15:00 +29°C° 0 mm 3 m/S 704 mmHg 30%
    16:00 +29°C° 0 mm 3 m/S 703 mmHg 30%
    17:00 +27°C° 0 mm 2 m/S 703 mmHg 36%
    18:00 +25°C° 0 mm 2 m/S 703 mmHg 41%
    19:00 +23°C° 0 mm 1 m/S 703 mmHg 47%
    20:00 +21°C° 0.2 mm 2 m/S 703 mmHg 56%
    21:00 +20°C° 0.2 mm 2 m/S 702 mmHg 65%
    22:00 +19°C° 0.2 mm 3 m/S 702 mmHg 74%
    23:00 +18°C° 0.1 mm 2 m/S 701 mmHg 80%
    Mehr zeigen